TimeEDT,TemperatureF,Dew PointF,Humidity,Sea Level PressureIn,VisibilityMPH,Wind Direction,Wind SpeedMPH,Gust SpeedMPH,PrecipitationIn,Events,Conditions,WindDirDegrees,DateUTC
12:56 AM,66.9,64.0,90,30.19,10.0,SSW,10.4,-,N/A,,Partly Cloudy,210,2013-06-23 04:56:00
1:56 AM,66.9,64.0,90,30.18,10.0,SW,13.8,18.4,N/A,,Partly Cloudy,220,2013-06-23 05:56:00
2:53 AM,66.2,64.4,94,30.16,10.0,SW,10.4,-,N/A,,Mostly Cloudy,230,2013-06-23 06:53:00
2:54 AM,66.9,64.0,90,30.17,10.0,SW,10.4,-,N/A,,Mostly Cloudy,230,2013-06-23 06:54:00
3:56 AM,66.0,64.0,93,30.16,10.0,SW,10.4,-,N/A,,Overcast,230,2013-06-23 07:56:00
4:56 AM,66.0,64.0,93,30.16,10.0,SSW,9.2,-,N/A,,Mostly Cloudy,210,2013-06-23 08:56:00
5:07 AM,66.2,62.6,88,30.16,10.0,SW,8.1,-,N/A,,Scattered Clouds,220,2013-06-23 09:07:00
5:56 AM,66.0,63.0,90,30.17,10.0,SSW,8.1,-,N/A,,Scattered Clouds,200,2013-06-23 09:56:00
6:11 AM,66.2,64.4,94,30.16,10.0,SSW,8.1,-,N/A,,Partly Cloudy,210,2013-06-23 10:11:00
6:56 AM,66.9,63.0,87,30.17,10.0,SSW,10.4,-,N/A,,Clear,210,2013-06-23 10:56:00
7:56 AM,68.0,63.0,84,30.18,10.0,SSW,9.2,-,N/A,,Clear,200,2013-06-23 11:56:00
8:56 AM,71.1,64.0,78,30.18,10.0,SSW,9.2,-,N/A,,Clear,210,2013-06-23 12:56:00
9:56 AM,73.0,64.0,73,30.17,10.0,SSW,11.5,-,N/A,,Clear,210,2013-06-23 13:56:00
10:56 AM,73.0,64.0,73,30.16,10.0,SSW,10.4,-,N/A,,Clear,210,2013-06-23 14:56:00
11:56 AM,75.0,64.9,71,30.15,10.0,SW,12.7,-,N/A,,Clear,220,2013-06-23 15:56:00
12:56 PM,75.9,64.9,69,30.14,10.0,SSW,16.1,-,N/A,,Clear,210,2013-06-23 16:56:00
1:56 PM,75.9,64.0,67,30.12,10.0,SW,17.3,-,N/A,,Clear,220,2013-06-23 17:56:00
2:56 PM,77.0,64.9,66,30.10,10.0,SW,17.3,25.3,N/A,,Clear,220,2013-06-23 18:56:00
3:56 PM,75.9,66.0,71,30.09,10.0,SSW,18.4,25.3,N/A,,Clear,210,2013-06-23 19:56:00
4:56 PM,75.0,66.0,73,30.08,10.0,SSW,13.8,23.0,N/A,,Clear,210,2013-06-23 20:56:00
5:56 PM,75.0,66.9,76,30.07,10.0,SW,16.1,25.3,N/A,,Clear,220,2013-06-23 21:56:00
6:56 PM,72.0,66.9,84,30.08,10.0,SW,12.7,23.0,N/A,,Clear,220,2013-06-23 22:56:00
7:19 PM,71.6,68.0,88,30.08,10.0,SW,13.8,-,N/A,,Mostly Cloudy,230,2013-06-23 23:19:00
7:56 PM,70.0,66.9,90,30.08,10.0,SW,11.5,19.6,N/A,,Mostly Cloudy,220,2013-06-23 23:56:00
8:56 PM,71.1,69.1,93,30.07,9.0,SW,17.3,26.5,N/A,,Overcast,230,2013-06-24 00:56:00
9:56 PM,71.1,69.1,93,30.09,10.0,SW,15.0,20.7,N/A,,Overcast,230,2013-06-24 01:56:00
10:56 PM,70.0,68.0,93,30.09,10.0,SW,11.5,23.0,N/A,,Mostly Cloudy,220,2013-06-24 02:56:00
11:04 PM,69.8,68.0,94,30.08,10.0,SW,13.8,-,N/A,,Mostly Cloudy,220,2013-06-24 03:04:00
11:54 PM,69.8,68.0,94,30.07,10.0,SW,15.0,-,N/A,,Overcast,230,2013-06-24 03:54:00
11:56 PM,70.0,68.0,93,30.07,10.0,SW,16.1,-,N/A,,Overcast,230,2013-06-24 03:56:00